Location: Malanoce
(44.2500°N, 7.4667°E)
Time: 23:10:18
(UTC+00:00)

ATLAS CENTAUR R/B - Pass Details

Date: 17 November 2025
Orbit: 343 x 422 km, 64.6° (Epoch: 09 December)

Event Time Altitude Azimuth Distance (km) Brightness Sun altitude
Rises 16:43:36 0° 272° (W) 2,427 6.1 -7.8°
Reaches altitude 10° 16:47:44 10° 320° (NW) 1,567 3.9 -8.5°
Maximum altitude 16:48:03 10° 325° (NW) 1,561 3.9 -8.6°
Drops below altitude 10° 16:48:23 10° 331° (NNW) 1,567 3.8 -8.6°
Enters shadow 16:52:21 - 18° (NNE) 2,378 4.2 -9.3°
